This demonstration page uses our WeatherBlox Daily Observations layout. Learn more.

Left ArrowRight Arrow

Hourly Observations for January 12, 2018

Temp ( °F °C ) Dew Point ( °F °C ) Humidity (%) Winds ( mph kmh ) Pressure ( in mb ) Visibility ( mi km ) Precip ( " mm )
12:15 am 00:15 Cloudy 46 8 46 8 100 100 WNW 9 15 29.80 1009 5 8 N/A
12:35 am 00:35 Cloudy 45 7 45 7 100 100 NNW 15 24 29.80 1009 5 8 N/A
12:55 am 00:55 Cloudy 43 6 43 6 100 100 NW 12 19 29.80 1009 7 11 N/A
1:15 am 01:15 Cloudy 39 4 39 4 100 100 WNW 16 26 29.80 1009 5 8 N/A
1:35 am 01:35 Cloudy 37 3 37 3 100 100 WNW 16 26 29.80 1009 7 11 N/A
1:55 am 01:55 Cloudy 34 1 34 1 100 100 NW 12 19 29.80 1009 5 8 N/A
2:15 am 02:15 Cloudy 34 1 34 1 100 100 NNW 14 22 29.80 1009 7 11 N/A
2:35 am 02:35 Cloudy 32 undefined 32 undefined 100 100 NW 9 15 29.85 1011 7 11 N/A
2:55 am 02:55 Cloudy 32 undefined 32 undefined 100 100 NNW 16 26 29.85 1011 4 6 N/A
3:15 am 03:15 Cloudy 30 -1 30 -1 100 100 NW 16 26 29.85 1011 4 6 N/A
3:35 am 03:35 Cloudy 30 -1 30 -1 100 100 NNW 13 20 29.83 1010 5 8 N/A
3:55 am 03:55 Cloudy 28 -2 28 -2 100 100 NNW 15 24 29.83 1010 7 11 N/A
4:15 am 04:15 Cloudy 28 -2 28 -2 100 100 NW 10 17 29.83 1010 3 5 N/A
4:35 am 04:35 Cloudy 28 -2 28 -2 100 100 NNW 13 20 29.83 1010 4 6 N/A
4:55 am 04:55 Cloudy 28 -2 28 -2 100 100 NW 12 19 29.85 1011 4 6 N/A
5:15 am 05:15 Cloudy 28 -2 28 -2 100 100 NW 10 17 29.85 1011 3 5 N/A
5:35 am 05:35 Cloudy 27 -3 27 -3 100 100 NW 12 19 29.85 1011 2 2 N/A
5:55 am 05:55 Cloudy 27 -3 27 -3 100 100 NW 10 17 29.88 1012 3 4 N/A
6:15 am 06:15 Cloudy 28 -2 28 -2 100 100 NW 10 17 29.88 1012 3 4 N/A
6:35 am 06:35 Cloudy 27 -3 27 -3 100 100 NW 12 19 29.88 1012 3 4 N/A
6:55 am 06:55 Cloudy 27 -3 27 -3 100 100 NNW 14 22 29.88 1012 5 8 N/A
7:15 am 07:15 Cloudy 27 -3 27 -3 100 100 NW 13 20 29.88 1012 5 8 N/A
7:35 am 07:35 Cloudy 27 -3 27 -3 100 100 NNW 13 20 29.88 1012 7 11 N/A
7:55 am 07:55 Cloudy 27 -3 27 -3 100 100 NNW 10 17 29.88 1012 7 11 N/A
8:15 am 08:15 Cloudy 27 -3 27 -3 100 100 NNW 10 17 29.91 1013 10 16 N/A
8:35 am 08:35 Cloudy 27 -3 27 -3 100 100 NNW 14 22 29.91 1013 10 16 N/A
8:55 am 08:55 Cloudy 27 -3 27 -3 100 100 NNW 12 19 29.94 1014 7 11 N/A
9:15 am 09:15 Cloudy 27 -3 27 -3 100 100 NNW 15 24 29.91 1013 7 11 N/A
9:35 am 09:35 Cloudy 27 -3 27 -3 100 100 NNW 10 17 29.94 1014 7 11 N/A
9:55 am 09:55 Cloudy 27 -3 27 -3 100 100 NNW 16 26 29.94 1014 10 16 N/A
10:15 am 10:15 Cloudy 28 -2 28 -2 100 100 N 14 22 29.94 1014 10 16 N/A
10:35 am 10:35 Cloudy 28 -2 28 -2 100 100 N 14 22 29.94 1014 7 11 N/A
10:55 am 10:55 Cloudy 28 -2 28 -2 100 100 N 17 28 29.97 1015 7 11 N/A
11:15 am 11:15 Cloudy 28 -2 28 -2 100 100 N 17 28 29.94 1014 10 16 N/A
11:35 am 11:35 Cloudy 28 -2 28 -2 100 100 N 16 26 29.94 1014 10 16 N/A
11:55 am 11:55 Cloudy 28 -2 28 -2 100 100 N 16 26 29.94 1014 10 16 N/A
12:15 pm 12:15 Cloudy 27 -3 27 -3 100 100 N 21 33 29.94 1014 7 11 N/A
12:35 pm 12:35 Cloudy 27 -3 27 -3 100 100 N 22 35 29.91 1013 3 5 N/A
12:55 pm 12:55 Cloudy 27 -3 27 -3 100 100 N 18 30 29.94 1014 2 3 N/A
1:15 pm 13:15 Cloudy 27 -3 27 -3 100 100 N 13 20 29.94 1014 1 2 N/A
1:35 pm 13:35 Cloudy 27 -3 27 -3 100 100 N 18 30 29.91 1013 1 2 N/A
1:55 pm 13:55 Cloudy 27 -3 27 -3 100 100 N 13 20 29.94 1014 1 2 N/A
2:15 pm 14:15 Cloudy 27 -3 27 -3 100 100 N 15 24 29.94 1014 1 2 N/A
2:35 pm 14:35 Cloudy 27 -3 27 -3 100 100 N 14 22 29.94 1014 1 1 N/A
2:55 pm 14:55 Cloudy 27 -3 27 -3 100 100 N 14 22 29.94 1014 1 2 N/A
3:15 pm 15:15 Cloudy 25 -4 25 -4 100 100 NNE 15 24 30.00 1016 1 2 N/A
3:35 pm 15:35 Cloudy 25 -4 25 -4 100 100 N 15 24 29.97 1015 2 3 N/A
3:55 pm 15:55 Cloudy 25 -4 25 -4 100 100 N 15 24 30.00 1016 3 4 N/A
4:15 pm 16:15 Cloudy 25 -4 25 -4 100 100 N 15 24 30.03 1017 3 5 N/A
4:35 pm 16:35 Cloudy 25 -4 25 -4 100 100 N 17 28 30.03 1017 4 6 N/A
4:55 pm 16:55 Cloudy 25 -4 25 -4 100 100 N 18 30 30.03 1017 3 5 N/A
5:15 pm 17:15 Cloudy 23 -5 23 -5 100 100 N 18 30 30.03 1017 7 11 N/A
5:35 pm 17:35 Cloudy 23 -5 23 -5 100 100 N 18 30 30.06 1018 7 11 N/A
5:55 pm 17:55 Cloudy 23 -5 23 -5 100 100 N 15 24 30.06 1018 10 16 N/A
6:15 pm 18:15 Cloudy 23 -5 21 -6 93 93 N 18 30 30.09 1019 10 16 N/A
6:36 pm 18:36 Cloudy 23 -5 21 -6 93 93 N 15 24 30.09 1019 10 16 N/A
6:55 pm 18:55 Cloudy 23 -5 21 -6 93 93 N 14 22 30.15 1021 10 16 N/A
7:15 pm 19:15 Cloudy 23 -5 21 -6 93 93 N 18 30 30.15 1021 10 16 N/A
7:35 pm 19:35 Cloudy 23 -5 21 -6 93 93 N 20 31 30.15 1021 10 16 N/A
7:55 pm 19:55 Cloudy 23 -5 19 -7 86 86 N 21 33 30.18 1022 10 16 N/A
8:15 pm 20:15 Cloudy 21 -6 19 -7 93 93 N 20 31 30.18 1022 10 16 N/A
8:35 pm 20:35 Cloudy 21 -6 19 -7 93 93 N 17 28 30.18 1022 10 16 N/A
8:55 pm 20:55 Cloudy 21 -6 19 -7 93 93 N 17 28 30.18 1022 10 16 N/A
9:15 pm 21:15 Cloudy 21 -6 19 -7 93 93 N 16 26 30.21 1023 10 16 N/A
9:35 pm 21:35 Cloudy 21 -6 18 -8 86 86 N 20 31 30.24 1024 10 16 N/A
9:55 pm 21:55 Cloudy 21 -6 18 -8 86 86 N 17 28 30.24 1024 10 16 N/A
10:15 pm 22:15 Partly Cloudy 21 -6 18 -8 86 86 N 16 26 30.24 1024 10 16 N/A
10:35 pm 22:35 Mostly Cloudy 19 -7 18 -8 93 93 N 13 20 30.24 1024 10 16 N/A
10:55 pm 22:55 Cloudy 19 -7 18 -8 93 93 N 21 33 30.24 1024 10 16 N/A
11:15 pm 23:15 Mostly Cloudy 19 -7 14 -10 79 79 N 20 31 30.27 1025 10 16 N/A
11:35 pm 23:35 Partly Cloudy 18 -8 14 -10 86 86 N 17 28 30.27 1025 10 16 N/A
11:55 pm 23:55 Partly Cloudy 18 -8 14 -10 86 86 N 13 20 30.27 1025 10 16 N/A

Powered by AerisWeather